Location: Highland Meadows Observing Site
(48.4428°N, 114.5461°W)
Time: 12:45:02
(UTC-06:00)

Amateur Radio Satellites - All Passes

Search period start: 28 September 2016 12:15
Search period end: 29 September 2016 12:15
Location: Highland Meadows Observing Site, 48.4428°N, 114.5461°W

Satellite Date Start Highest point End Downlink Frequencies (MHz)
Time Altitude Azimuth
POPSAT HIP 1 28 Sep 12:17:45 12:21:57 86° 73° (ENE) 12:26:11 437.405
AIST 2 28 Sep 12:19:13 12:23:14 42° 44° (NE) 12:27:14 435.215
PCSat 28 Sep 12:27:32 12:31:53 24° 35° (NE) 12:36:14 145.827
JAS-2 28 Sep 12:33:00 12:39:39 84° 72° (ENE) 12:47:10 435.910
NANOSAT C BR1 28 Sep 12:33:44 12:37:54 67° 258° (WSW) 12:42:05 145.865
Oscar 19 28 Sep 12:35:41 12:39:03 18° 56° (ENE) 12:42:28 437.125/150
DELFI C3 28 Sep 12:36:42 12:39:55 23° 295° (WNW) 12:43:05 145.870
UNISAT 6 28 Sep 12:37:30 12:38:26 11° 273° (W) 12:39:22 437.425
Oscar 11 28 Sep 12:38:04 12:40:11 13° 302° (WNW) 12:42:17 145.826/435.025
ZACube-1 28 Sep 12:41:25 12:43:05 12° 302° (WNW) 12:44:46 437.345
SPROUT 28 Sep 12:47:29 12:49:18 12° 88° (E) 12:51:07 437.525
PHONESAT 2.4 28 Sep 12:51:36 12:53:27 15° 170° (S) 12:55:18 2401.200-2431.200
HUMSAT D 28 Sep 12:55:05 12:58:48 30° 293° (WNW) 13:02:32 437.325/437.525
AISAT 28 Sep 12:57:50 13:01:40 28° 95° (E) 13:05:26 437.250
QB50P2 28 Sep 12:58:13 13:02:03 34° 263° (W) 13:05:55 145.880/145.840
POLYITAN 1 28 Sep 13:00:27 13:04:16 34° 263° (W) 13:08:06 437.675
UKube-1 28 Sep 13:02:16 13:04:49 15° 90° (E) 13:07:20 .
AO-7 28 Sep 13:14:09 13:17:56 14° 33° (NNE) 13:21:44 29.400- 29.500
YUBILEINY 28 Sep 13:27:26 13:34:40 28° 60° (ENE) 13:41:51 435.215
AUBIESAT-1 28 Sep 13:30:02 13:32:20 17° 99° (E) 13:34:38 437.475
DX 1 28 Sep 13:31:01 13:35:03 36° 98° (E) 13:39:03 434.975-435.025
Cosmos 2491 28 Sep 13:36:11 13:37:35 10° 66° (ENE) 13:39:01 435.465 / 435.565
Gurwin Techsat 1B 28 Sep 13:37:01 13:41:29 29° 62° (ENE) 13:45:59 435.225
BUGSAT 1 28 Sep 13:37:19 13:41:06 35° 263° (W) 13:44:51 437.445
DUCHIFAT 1 28 Sep 13:38:54 13:41:39 17° 269° (W) 13:44:23 145.980
VELOX 1 28 Sep 13:41:02 13:45:28 72° 103° (ESE) 13:49:51 145.980
QB50P1 28 Sep 13:42:17 13:44:35 14° 271° (W) 13:46:52 145.935-145.965
CUBEBUG 1 28 Sep 13:43:42 13:48:04 83° 284° (WNW) 13:52:23 437.445
ESTCUBE 1 28 Sep 13:44:29 13:48:57 56° 289° (WNW) 13:53:22 437.505/2401.250
50 SAT 28 Sep 13:54:20 13:58:02 75° 284° (WNW) 14:01:40 437.505
POPSAT HIP 1 28 Sep 13:57:36 13:58:21 10° 273° (W) 13:59:06 437.405
Cosmos 2504 28 Sep 13:57:40 14:01:48 15° 54° (NE) 14:06:03 435.465 / 435.565
AIST 2 28 Sep 13:57:58 14:01:35 28° 243° (WSW) 14:05:12 435.215
TISAT 1 28 Sep 14:04:50 14:07:32 17° 91° (E) 14:10:13 437.305
M-CUBED/EXP-1 PRIME 28 Sep 14:07:18 14:10:34 62° 107° (ESE) 14:13:48 437.505
PCSat 28 Sep 14:10:32 14:16:00 88° 238° (WSW) 14:21:26 145.827
Oscar 19 28 Sep 14:12:33 14:17:46 83° 256° (WSW) 14:23:00 437.125/150
JAS-2 28 Sep 14:20:44 14:25:42 21° 276° (W) 14:31:05 435.910
SPROUT 28 Sep 14:21:31 14:25:47 75° 286° (WNW) 14:30:01 437.525
PHONESAT 2.4 28 Sep 14:26:58 14:28:56 17° 187° (S) 14:30:56 2401.200-2431.200
AISAT 28 Sep 14:34:11 14:38:10 34° 294° (WNW) 14:42:08 437.250
UKube-1 28 Sep 14:37:00 14:41:17 63° 288° (WNW) 14:45:32 .
SWISSCUBE 28 Sep 14:55:02 14:57:36 14° 88° (E) 15:00:10 437.505
AO-7 28 Sep 15:00:57 15:08:36 43° 57° (ENE) 15:16:15 29.400- 29.500
AUBIESAT-1 28 Sep 15:03:57 15:06:57 32° 297° (WNW) 15:09:56 437.475
ITAMSAT 1 28 Sep 15:07:24 15:12:22 49° 68° (ENE) 15:17:21 435.822/435.867
DX 1 28 Sep 15:07:28 15:11:07 27° 296° (WNW) 15:14:45 434.975-435.025
BEESAT 28 Sep 15:07:32 15:10:37 17° 90° (E) 15:13:42 436.000
Gurwin Techsat 1B 28 Sep 15:16:05 15:21:13 49° 260° (W) 15:26:23 435.225
VELOX 1 28 Sep 15:18:46 15:21:25 16° 301° (WNW) 15:24:03 145.980
CUBEBUG 1 28 Sep 15:22:06 15:23:38 12° 304° (NW) 15:25:09 437.445
Cosmos 2491 28 Sep 15:23:47 15:32:09 52° 89° (E) 15:40:36 435.465 / 435.565
YUBILEINY 28 Sep 15:23:48 15:32:31 80° 264° (W) 15:41:11 435.215
SO-50 28 Sep 15:25:52 15:29:30 21° 113° (ESE) 15:33:07 436.795
TISAT 1 28 Sep 15:39:26 15:43:31 54° 289° (WNW) 15:47:34 437.305
M-CUBED/EXP-1 PRIME 28 Sep 15:43:35 15:44:42 11° 306° (NW) 15:45:48 437.505
Cosmos 2504 28 Sep 15:49:21 15:56:44 68° 77° (ENE) 16:04:33 435.465 / 435.565
PCSat 28 Sep 15:55:32 15:58:37 15° 256° (WSW) 16:01:42 145.827
Oscar 19 28 Sep 15:55:47 15:57:54 12° 274° (W) 16:00:01 437.125/150
SPROUT 28 Sep 16:00:19 16:00:57 10° 305° (NW) 16:01:35 437.525
ITUPSAT 1 28 Sep 16:18:27 16:23:17 72° 103° (ESE) 16:28:06 437.325
MOZHAYETS 4 28 Sep 16:27:06 16:30:29 19° 91° (E) 16:33:50
SWISSCUBE 28 Sep 16:31:10 16:36:00 80° 287° (WNW) 16:40:47 437.505
AIST 1 28 Sep 16:39:41 16:43:45 39° 74° (ENE) 16:47:46
BEESAT 28 Sep 16:44:07 16:48:53 67° 288° (WNW) 16:53:38 436.000
KKS-1 28 Sep 16:47:10 16:50:14 18° 91° (E) 16:53:17 437.445
ITAMSAT 1 28 Sep 16:47:46 16:52:04 26° 267° (W) 16:56:24 435.822/435.867
AO-7 28 Sep 16:53:06 17:01:13 55° 258° (WSW) 17:09:22 29.400- 29.500
NOAA 15 28 Sep 16:56:46 16:59:04 13° 51° (NE) 17:01:22 137.62
O/OREOS (USA 219) 28 Sep 17:00:39 17:05:02 40° 56° (NE) 17:09:22 437.305
SO-50 28 Sep 17:04:47 17:09:35 66° 312° (NW) 17:14:21 436.795
HORYU 2 28 Sep 17:08:26 17:12:26 36° 67° (ENE) 17:16:29 437.375
CUTE-I 28 Sep 17:14:57 17:17:48 15° 53° (NE) 17:20:40 437.470
Cubesat XI-IV 28 Sep 17:15:05 17:17:55 15° 53° (NE) 17:20:46 437.490
STARS 28 Sep 17:18:37 17:21:43 19° 92° (E) 17:24:48 437.465
GOMX 1 28 Sep 17:19:42 17:22:51 16° 58° (ENE) 17:25:55 467.674
Cosmos 2491 28 Sep 17:20:58 17:29:13 43° 292° (WNW) 17:37:34 435.465 / 435.565
YUBILEINY 28 Sep 17:22:25 17:27:51 19° 286° (WNW) 17:33:18 435.215
BRITE-PL 28 Sep 17:31:52 17:37:09 41° 67° (ENE) 17:42:16 437.365/2234.400
LilacSat-2 28 Sep 17:35:54 17:37:26 12° 60° (ENE) 17:38:57 437.200
DOVE 4 28 Sep 17:39:50 17:40:25 10° 55° (NE) 17:41:00 437.250
Cosmos 2504 28 Sep 17:43:34 17:49:33 27° 277° (W) 17:55:48 435.465 / 435.565
CUBESAT XI-V 28 Sep 17:49:00 17:52:21 19° 90° (E) 17:55:40 437.345
GONETS M04 28 Sep 17:51:50 17:54:32 11° 42° (NE) 17:57:15
ITUPSAT 1 28 Sep 17:57:22 18:00:36 18° 302° (WNW) 18:03:50 437.325
NOAA 18 28 Sep 18:00:45 18:05:20 28° 60° (ENE) 18:09:56 137.9125
MOZHAYETS 4 28 Sep 18:03:25 18:07:59 55° 289° (WNW) 18:12:30
SWISSCUBE 28 Sep 18:10:48 18:13:00 13° 306° (NW) 18:15:14 437.505
CUSAT 1 28 Sep 18:17:17 18:20:27 14° 72° (ENE) 18:23:49 437.405
AIST 1 28 Sep 18:17:49 18:21:06 22° 273° (W) 18:24:21
KKS-1 28 Sep 18:22:48 18:27:09 54° 289° (WNW) 18:31:27 437.445
BEESAT 28 Sep 18:24:21 18:25:47 11° 307° (NW) 18:27:14 436.000
NOAA 15 28 Sep 18:32:37 18:37:53 67° 71° (ENE) 18:43:11 137.62
O/OREOS (USA 219) 28 Sep 18:40:22 18:44:17 28° 256° (WSW) 18:48:09 437.305
CINEMA 3 28 Sep 18:45:11 18:46:06 11° 57° (ENE) 18:47:03 145.822/145.860
HORYU 2 28 Sep 18:45:18 18:49:03 27° 265° (W) 18:52:52 437.375
SO-50 28 Sep 18:47:33 18:50:56 19° 333° (NNW) 18:54:18 436.795
CUTE-I 28 Sep 18:51:44 18:57:02 79° 73° (ENE) 19:02:22 437.470
Cubesat XI-IV 28 Sep 18:51:51 18:57:10 78° 72° (ENE) 19:02:30 437.490
AO-7 28 Sep 18:54:04 18:55:57 11° 279° (W) 18:57:50 29.400- 29.500
STARS 28 Sep 18:54:08 18:58:23 51° 290° (WNW) 19:02:36 437.465
GOMX 1 28 Sep 18:54:58 19:00:20 89° 263° (W) 19:05:26 467.674
Cosmos 2499 28 Sep 18:57:55 19:03:09 20° 58° (ENE) 19:08:36 435.465 / 435.565
HO-68 28 Sep 18:59:56 19:05:48 28° 54° (NE) 19:11:40 435.675
LilacSat-2 28 Sep 19:07:26 19:11:11 72° 258° (WSW) 19:14:59 437.200
BRITE-PL 28 Sep 19:10:24 19:15:37 37° 265° (W) 19:20:44 437.365/2234.400
DOVE 4 28 Sep 19:12:25 19:17:18 64° 73° (ENE) 19:21:56 437.250
CUBESAT XI-V 28 Sep 19:25:29 19:30:06 57° 289° (WNW) 19:34:41 437.345
Cosmos 2491 28 Sep 19:26:56 19:29:11 11° 319° (NW) 19:31:25 435.465 / 435.565
NOAA 18 28 Sep 19:40:26 19:45:44 52° 259° (W) 19:51:06 137.9125
RS-15 28 Sep 19:45:33 19:55:17 33° 104° (ESE) 20:05:23 29.354- 29.394
CUBEBUG 2 28 Sep 19:45:55 19:47:31 12° 58° (ENE) 19:49:08 437.445
GONETS M04 28 Sep 19:45:59 19:54:23 45° 69° (ENE) 20:02:39
COMPASS 1 28 Sep 19:50:16 19:52:56 17° 61° (ENE) 19:55:37 437.405
DANDE 28 Sep 19:53:34 19:58:10 26° 81° (E) 20:03:45 436.750
CUSAT 1 28 Sep 19:54:14 20:00:42 63° 95° (E) 20:08:25 437.405
UWE-3 28 Sep 20:02:08 20:03:41 12° 58° (ENE) 20:05:14 435.000/436.395/437.385
NOAA 15 28 Sep 20:14:20 20:18:09 20° 270° (W) 20:22:00 137.62
CINEMA 3 28 Sep 20:18:09 20:22:35 78° 75° (ENE) 20:26:51 145.822/145.860
SEEDS 28 Sep 20:18:59 20:22:57 41° 69° (ENE) 20:26:58 437.485
CUTE 1.7 + AOD 2 28 Sep 20:19:03 20:23:12 58° 73° (ENE) 20:27:25 437.475
CANX-2 28 Sep 20:20:27 20:24:40 69° 73° (ENE) 20:28:55 2200.000
Oscar 11 28 Sep 20:24:52 20:27:05 14° 58° (ENE) 20:29:17 145.826/435.025
ZACube-1 28 Sep 20:28:36 20:30:50 14° 59° (ENE) 20:33:02 437.345
SO-50 28 Sep 20:31:56 20:33:17 11° 358° (N) 20:34:37 436.795
CUTE-I 28 Sep 20:34:24 20:37:43 17° 272° (W) 20:41:03 437.470
Cubesat XI-IV 28 Sep 20:34:31 20:37:52 17° 271° (W) 20:41:14 437.490
GOMX 1 28 Sep 20:36:19 20:39:01 14° 273° (W) 20:41:40 467.674
AAUSAT CUBESAT 2 28 Sep 20:38:57 20:42:47 37° 69° (ENE) 20:46:41 437.432
HO-68 28 Sep 20:45:46 20:52:56 75° 254° (WSW) 21:00:09 435.675
Cosmos 2499 28 Sep 20:49:55 20:57:26 83° 79° (E) 21:05:33 435.465 / 435.565
STRAND 1 28 Sep 20:50:03 20:55:08 54° 100° (E) 21:00:10 437.568
DOVE 4 28 Sep 20:52:01 20:55:22 18° 270° (W) 20:58:35 437.250
AO-85 28 Sep 21:06:34 21:10:25 21° 113° (ESE) 21:14:05 145.980
CUBEBUG 2 28 Sep 21:19:21 21:23:32 86° 252° (WSW) 21:27:43 437.445
FUNcube-1 28 Sep 21:20:08 21:23:59 39° 69° (ENE) 21:27:52 145.935
COMPASS 1 28 Sep 21:23:55 21:28:04 60° 260° (W) 21:32:15 437.405
DANDE 28 Sep 21:34:39 21:40:10 62° 287° (WNW) 21:47:26 436.750
UWE-3 28 Sep 21:35:22 21:39:31 87° 257° (WSW) 21:43:42 435.000/436.395/437.385
CUSAT 1 28 Sep 21:37:14 21:43:19 33° 298° (WNW) 21:50:18 437.405
GONETS M04 28 Sep 21:42:59 21:51:20 50° 272° (W) 21:59:37
ISS 28 Sep 21:49:38 21:52:47 50° 150° (SSE) 21:55:59 145.825
DELFI C3 28 Sep 21:50:38 21:54:18 36° 69° (ENE) 21:58:00 145.870
RS-15 28 Sep 21:54:38 22:06:26 86° 309° (NW) 22:18:50 29.354- 29.394
SEEDS 28 Sep 21:55:33 21:58:50 22° 268° (W) 22:02:08 437.485
CUTE 1.7 + AOD 2 28 Sep 21:56:49 21:59:26 16° 271° (W) 22:02:06 437.475
Oscar 11 28 Sep 21:58:18 22:02:37 81° 256° (WSW) 22:06:59 145.826/435.025
CINEMA 3 28 Sep 21:58:29 22:00:14 12° 272° (W) 22:01:58 145.822/145.860
CANX-2 28 Sep 21:58:50 22:01:00 14° 272° (W) 22:03:10 2200.000
PRISM 28 Sep 22:00:03 22:03:36 27° 95° (E) 22:07:07 437.425
ZACube-1 28 Sep 22:02:28 22:06:35 71° 257° (WSW) 22:10:46 437.345
SO-50 28 Sep 22:12:42 22:15:42 17° 23° (NNE) 22:18:39 436.795
HUMSAT D 28 Sep 22:14:12 22:17:53 33° 68° (ENE) 22:21:38 437.325/437.525
AAUSAT CUBESAT 2 28 Sep 22:15:01 22:18:23 23° 267° (W) 22:21:48 437.432
STRAND 1 28 Sep 22:29:50 22:34:00 25° 299° (WNW) 22:38:09 437.568
HO-68 28 Sep 22:37:57 22:41:53 15° 275° (W) 22:45:50 435.675
Cosmos 2499 28 Sep 22:44:16 22:49:45 22° 280° (W) 22:55:30 435.465 / 435.565
AO-85 28 Sep 22:45:24 22:50:31 70° 311° (NW) 22:55:17 145.980
UNISAT 6 28 Sep 22:45:50 22:48:08 14° 89° (E) 22:50:28 437.425
FUNcube-1 28 Sep 22:57:12 23:00:24 22° 267° (W) 23:03:38 145.935
VELOX 1 28 Sep 23:07:49 23:10:12 14° 57° (ENE) 23:12:34 145.980
CUBEBUG 1 28 Sep 23:08:33 23:11:27 17° 60° (ENE) 23:14:21 437.445
ESTCUBE 1 28 Sep 23:11:26 23:15:14 27° 64° (ENE) 23:19:03 437.505/2401.250
ANTELSAT 28 Sep 23:20:00 23:23:52 29° 95° (E) 23:27:48 437.575/2403.000
DANDE 28 Sep 23:21:22 23:24:56 15° 313° (NW) 23:28:55 436.750
M-CUBED/EXP-1 PRIME 28 Sep 23:23:40 23:26:25 19° 58° (ENE) 23:29:03 437.505
DELFI C3 28 Sep 23:26:02 23:29:14 23° 267° (W) 23:32:29 145.870
ISS 28 Sep 23:26:06 23:29:19 53° 349° (N) 23:32:32 145.825
PRISM 28 Sep 23:35:13 23:38:55 32° 294° (WNW) 23:42:36 437.425
TIGRISAT 28 Sep 23:40:01 23:44:13 43° 98° (E) 23:48:29 435.000
JAS-2 28 Sep 23:40:47 23:44:21 13° 79° (E) 23:47:50 435.910
SPROUT 28 Sep 23:44:18 23:47:02 17° 60° (ENE) 23:49:47 437.525
HUMSAT D 28 Sep 23:50:09 23:53:34 25° 266° (W) 23:57:02 437.325/437.525
SO-50 28 Sep 23:52:37 23:57:11 55° 46° (NE) 00:01:37 436.795
AISAT 28 Sep 23:58:25 00:02:35 40° 68° (ENE) 00:06:46 437.250
UKube-1 29 Sep 00:00:01 00:03:21 22° 62° (ENE) 00:06:42 .
POPSAT HIP 1 29 Sep 00:01:10 00:02:12 11° 87° (E) 00:03:13 437.405
RS-15 29 Sep 00:09:32 00:20:48 43° 339° (NNW) 00:32:26 29.354- 29.394
NANOSAT C BR1 29 Sep 00:15:29 00:17:54 15° 90° (E) 00:20:20 145.865
AUBIESAT-1 29 Sep 00:18:24 00:22:14 52° 67° (ENE) 00:25:50 437.475
UNISAT 6 29 Sep 00:20:57 00:25:21 72° 286° (WNW) 00:29:49 437.425
AO-85 29 Sep 00:28:13 00:31:44 19° 331° (NNW) 00:35:05 145.980
DX 1 29 Sep 00:29:45 00:34:00 51° 70° (ENE) 00:38:15 434.975-435.025
50 SAT 29 Sep 00:34:05 00:37:43 82° 75° (ENE) 00:41:25 437.505
QB50P2 29 Sep 00:39:05 00:42:46 28° 95° (E) 00:46:26 145.880/145.840
POLYITAN 1 29 Sep 00:41:17 00:44:58 28° 95° (E) 00:48:38 437.675
VELOX 1 29 Sep 00:41:35 00:46:03 82° 257° (WSW) 00:50:32 145.980
CUBEBUG 1 29 Sep 00:42:54 00:47:17 64° 258° (WSW) 00:51:41 437.445
ESTCUBE 1 29 Sep 00:47:38 00:51:53 39° 262° (W) 00:56:11 437.505/2401.250
ANTELSAT 29 Sep 00:56:39 01:00:37 34° 293° (WNW) 01:04:39 437.575/2403.000
M-CUBED/EXP-1 PRIME 29 Sep 00:56:47 01:00:44 48° 254° (WSW) 01:04:24 437.505
TISAT 1 29 Sep 00:59:54 01:03:04 21° 63° (ENE) 01:06:15 437.305
ISS 29 Sep 01:02:54 01:06:07 51° 10° (N) 01:09:20 145.825
BUGSAT 1 29 Sep 01:15:19 01:18:34 23° 94° (E) 01:21:49 437.445
TIGRISAT 29 Sep 01:17:11 01:20:42 24° 296° (WNW) 01:24:16 435.000
DUCHIFAT 1 29 Sep 01:17:15 01:21:24 58° 101° (E) 01:25:32 145.980
SPROUT 29 Sep 01:18:19 01:22:33 62° 259° (W) 01:26:47 437.525
QB50P1 29 Sep 01:20:41 01:24:54 72° 102° (ESE) 01:29:07 145.935-145.965
JAS-2 29 Sep 01:23:07 01:30:58 61° 100° (E) 01:38:27 435.910
BEESAT 2 29 Sep 01:26:29 01:28:54 16° 112° (ESE) 01:31:21 435.950
Cosmos 2491 29 Sep 01:29:13 01:37:00 33° 63° (ENE) 01:44:42 435.465 / 435.565
SO-50 29 Sep 01:33:42 01:37:20 24° 246° (WSW) 01:40:54 436.795
POPSAT HIP 1 29 Sep 01:34:21 01:38:35 85° 283° (WNW) 01:42:48 437.405
UKube-1 29 Sep 01:34:58 01:39:08 46° 260° (W) 01:43:19 .
AISAT 29 Sep 01:35:33 01:39:12 24° 266° (W) 01:42:52 437.250
NANOSAT C BR1 29 Sep 01:49:53 01:54:02 61° 288° (WNW) 01:58:11 145.865
ITUPSAT 1 29 Sep 01:52:51 01:56:11 19° 59° (ENE) 01:59:31 437.325
AUBIESAT-1 29 Sep 01:54:30 01:56:55 16° 261° (W) 01:59:15 437.475
UNISAT 6 29 Sep 02:00:28 02:01:18 10° 305° (NW) 02:02:08 437.425
BEESAT 3 29 Sep 02:04:14 02:08:07 68° 125° (SE) 02:12:03 437.485
SWISSCUBE 29 Sep 02:04:31 02:08:26 26° 62° (ENE) 02:12:22 437.505
DX 1 29 Sep 02:07:22 02:10:29 19° 268° (W) 02:13:37 434.975-435.025
AO-85 29 Sep 02:13:43 02:13:59 10° 355° (N) 02:14:15 145.980
QB50P2 29 Sep 02:14:50 02:18:35 32° 293° (WNW) 02:22:20 145.880/145.840
POLYITAN 1 29 Sep 02:17:01 02:20:46 32° 293° (WNW) 02:24:31 437.675
BEESAT 29 Sep 02:17:06 02:21:13 30° 64° (ENE) 02:25:22 436.000
Oscar 19 29 Sep 02:20:46 02:25:06 26° 93° (E) 02:29:22 437.125/150
RS-15 29 Sep 02:25:57 02:37:13 39° 12° (NNE) 02:48:32 29.354- 29.394
TISAT 1 29 Sep 02:34:28 02:38:28 44° 261° (W) 02:42:29 437.305
YUBILEINY 29 Sep 02:34:47 02:41:35 26° 79° (ENE) 02:48:22 435.215
ISS 29 Sep 02:39:26 02:42:40 54° 209° (SSW) 02:45:53 145.825
BUGSAT 1 29 Sep 02:50:22 02:54:03 35° 292° (WNW) 02:57:43 437.445
DUCHIFAT 1 29 Sep 02:53:57 02:56:42 17° 299° (WNW) 02:59:27 145.980
QB50P1 29 Sep 02:57:50 03:00:10 15° 301° (WNW) 03:02:30 145.935-145.965
BEESAT 2 29 Sep 03:02:19 03:06:16 65° 311° (NW) 03:10:15 435.950
JAS-2 29 Sep 03:08:32 03:15:35 38° 300° (WNW) 03:22:27 435.910
POPSAT HIP 1 29 Sep 03:12:19 03:13:40 11° 303° (WNW) 03:15:01 437.405
ITAMSAT 1 29 Sep 03:18:12 03:20:23 12° 86° (E) 03:22:34 435.822/435.867
Cosmos 2491 29 Sep 03:25:50 03:34:37 70° 267° (W) 03:43:20 435.465 / 435.565
Gurwin Techsat 1B 29 Sep 03:28:09 03:33:21 50° 100° (E) 03:38:29 435.225
ITUPSAT 1 29 Sep 03:28:48 03:33:33 66° 258° (WSW) 03:38:20 437.325
MOZHAYETS 4 29 Sep 03:32:22 03:36:16 28° 65° (ENE) 03:40:12
SWISSCUBE 29 Sep 03:41:27 03:46:01 45° 261° (W) 03:50:37 437.505
BEESAT 3 29 Sep 03:43:08 03:46:11 21° 325° (NW) 03:49:15 437.485
KKS-1 29 Sep 03:48:28 03:52:13 27° 64° (ENE) 03:55:59 437.445
AO-85 29 Sep 03:54:05 03:56:25 14° 21° (NNE) 03:58:39 145.980
BEESAT 29 Sep 03:54:28 03:58:54 38° 262° (W) 04:03:22 436.000
AIST 2 29 Sep 03:58:52 04:02:07 23° 115° (ESE) 04:05:24 435.215
Oscar 19 29 Sep 03:59:41 04:04:39 48° 292° (WNW) 04:09:33 437.125/150
ISS 29 Sep 04:17:49 04:18:33 11° 226° (SW) 04:19:17 145.825
STARS 29 Sep 04:18:32 04:22:14 27° 64° (ENE) 04:25:56 437.465
YUBILEINY 29 Sep 04:28:39 04:37:27 79° 281° (W) 04:46:16 435.215
Cosmos 2504 29 Sep 04:32:40 04:39:37 49° 90° (E) 04:46:26 435.465 / 435.565
RS-15 29 Sep 04:40:02 04:52:25 69° 43° (NE) 05:04:37 29.354- 29.394
BEESAT 2 29 Sep 04:42:29 04:44:51 15° 332° (NNW) 04:47:14 435.950
CUSAT 1 29 Sep 04:43:52 04:48:41 17° 49° (NE) 04:53:09 437.405
DANDE 29 Sep 04:46:05 04:47:51 11° 40° (NE) 04:49:37 436.750
AO-7 29 Sep 04:50:08 04:57:55 42° 98° (E) 05:05:39 29.400- 29.500
ITAMSAT 1 29 Sep 04:55:24 05:00:40 83° 105° (ESE) 05:05:55 435.822/435.867
CUBESAT XI-V 29 Sep 04:55:34 04:59:35 29° 65° (ENE) 05:03:38 437.345
PCSat 29 Sep 04:55:58 05:00:57 39° 114° (ESE) 05:05:57 145.827
JAS-2 29 Sep 04:56:34 04:58:27 11° 322° (NW) 05:00:18 435.910
Gurwin Techsat 1B 29 Sep 05:08:36 05:13:03 28° 298° (WNW) 05:17:30 435.225
MOZHAYETS 4 29 Sep 05:09:04 05:13:19 37° 263° (W) 05:17:37
AIST 1 29 Sep 05:13:37 05:16:48 20° 86° (E) 05:20:00
KKS-1 29 Sep 05:24:32 05:28:40 37° 262° (W) 05:32:49 437.445
Cosmos 2491 29 Sep 05:24:59 05:29:43 16° 289° (WNW) 05:34:28 435.465 / 435.565
AO-85 29 Sep 05:33:49 05:37:58 46° 44° (NE) 05:41:51 145.980
AIST 2 29 Sep 05:36:20 05:40:21 49° 314° (NW) 05:44:24 435.215
STARS 29 Sep 05:54:25 05:58:28 36° 263° (W) 06:02:33 437.465
CUSAT 1 29 Sep 06:24:44 06:32:34 62° 73° (ENE) 06:39:10 437.405
DANDE 29 Sep 06:25:45 06:33:21 37° 64° (ENE) 06:40:41 436.750
Cosmos 2504 29 Sep 06:26:34 06:33:11 37° 292° (WNW) 06:39:45 435.465 / 435.565
YUBILEINY 29 Sep 06:29:34 06:35:52 21° 305° (NW) 06:42:11 435.215
HORYU 2 29 Sep 06:31:31 06:35:45 41° 99° (E) 06:39:58 437.375
CUBESAT XI-V 29 Sep 06:32:26 06:36:50 39° 263° (W) 06:41:17 437.345
STRAND 1 29 Sep 06:32:40 06:36:10 19° 57° (ENE) 06:39:39 437.568
ITAMSAT 1 29 Sep 06:36:06 06:39:30 18° 304° (NW) 06:42:56 435.822/435.867
PCSat 29 Sep 06:39:11 06:44:20 42° 314° (NW) 06:49:31 145.827
AO-7 29 Sep 06:42:55 06:50:55 54° 299° (WNW) 06:58:53 29.400- 29.500
NOAA 15 29 Sep 06:44:54 06:48:34 19° 90° (E) 06:52:12 137.62
AIST 1 29 Sep 06:49:53 06:54:06 45° 285° (WNW) 06:58:19
RS-15 29 Sep 06:53:05 07:04:34 48° 249° (WSW) 07:15:50 29.354- 29.394
GOMX 1 29 Sep 06:54:24 06:57:29 18° 89° (E) 07:00:29 467.674
CUTE-I 29 Sep 07:05:29 07:09:44 23° 92° (E) 07:13:58 437.470
Cubesat XI-IV 29 Sep 07:05:48 07:10:03 23° 92° (E) 07:14:16 437.490
DOVE 4 29 Sep 07:10:05 07:11:04 11° 86° (E) 07:12:04 437.250
BRITE-PL 29 Sep 07:11:32 07:16:23 63° 100° (E) 07:20:50 437.365/2234.400
AO-85 29 Sep 07:14:47 07:18:07 23° 245° (WSW) 07:21:16 145.980
O/OREOS (USA 219) 29 Sep 07:17:34 07:21:02 22° 102° (ESE) 07:24:32 437.305
AIST 2 29 Sep 07:17:40 07:19:49 14° 336° (NNW) 07:21:57 435.215
NOAA 18 29 Sep 07:58:20 08:03:39 49° 100° (E) 08:08:57 137.9125
BEESAT 2 29 Sep 08:02:52 08:04:06 11° 20° (NNE) 08:05:22 435.950
CUSAT 1 29 Sep 08:07:25 08:14:03 32° 276° (W) 08:19:50 437.405
DANDE 29 Sep 08:08:24 08:16:42 66° 265° (W) 08:24:30 436.750
HORYU 2 29 Sep 08:08:28 08:12:07 25° 297° (WNW) 08:15:46 437.375
STRAND 1 29 Sep 08:09:41 08:14:47 75° 257° (WSW) 08:19:56 437.568
CINEMA 3 29 Sep 08:10:22 08:12:17 13° 89° (E) 08:14:12 145.822/145.860
HO-68 29 Sep 08:10:40 08:15:16 18° 87° (E) 08:19:51 435.675
LilacSat-2 29 Sep 08:11:06 08:14:57 80° 285° (WNW) 08:18:48 437.200
NOAA 15 29 Sep 08:23:35 08:28:53 71° 289° (WNW) 08:34:09 137.62
PCSat 29 Sep 08:26:11 08:29:12 15° 338° (NNW) 08:32:14 145.827
GOMX 1 29 Sep 08:31:40 08:35:59 49° 289° (WNW) 08:40:04 467.674
AO-7 29 Sep 08:37:05 08:41:57 17° 322° (NW) 08:46:48 29.400- 29.500
BEESAT 3 29 Sep 08:40:47 08:44:01 23° 36° (NE) 08:47:15 437.485
CUTE-I 29 Sep 08:44:53 08:50:08 57° 291° (WNW) 08:55:23 437.470
DOVE 4 29 Sep 08:45:13 08:49:27 80° 285° (WNW) 08:53:35 437.250
Cubesat XI-IV 29 Sep 08:45:14 08:50:29 57° 291° (WNW) 08:55:44 437.490
BRITE-PL 29 Sep 08:50:57 08:54:21 19° 302° (WNW) 08:57:34 437.365/2234.400
GONETS M04 29 Sep 08:51:52 09:00:01 44° 86° (E) 09:08:11
PRISM 29 Sep 08:52:42 08:56:26 33° 67° (ENE) 09:00:13 437.425
O/OREOS (USA 219) 29 Sep 08:55:40 09:00:07 50° 301° (WNW) 09:04:37 437.305
COMPASS 1 29 Sep 09:03:49 09:06:37 17° 90° (E) 09:09:25 437.405
CUBEBUG 2 29 Sep 09:07:10 09:09:41 15° 90° (E) 09:12:14 437.445
UWE-3 29 Sep 09:22:05 09:24:31 15° 89° (E) 09:26:59 435.000/436.395/437.385
Cosmos 2499 29 Sep 09:31:23 09:38:18 59° 93° (E) 09:45:14 435.465 / 435.565
SEEDS 29 Sep 09:34:23 09:38:32 48° 99° (E) 09:42:39 437.485
CUTE 1.7 + AOD 2 29 Sep 09:35:45 09:40:04 70° 101° (E) 09:44:21 437.475
CANX-2 29 Sep 09:37:19 09:41:40 83° 101° (E) 09:45:59 2200.000
BEESAT 2 29 Sep 09:39:18 09:43:03 36° 43° (NE) 09:46:48 435.950
NOAA 18 29 Sep 09:39:25 09:44:05 30° 299° (WNW) 09:48:46 137.9125
Oscar 11 29 Sep 09:42:58 09:45:29 15° 89° (E) 09:47:58 145.826/435.025
CINEMA 3 29 Sep 09:45:46 09:49:55 70° 287° (WNW) 09:54:09 145.822/145.860
ZACube-1 29 Sep 09:47:33 09:50:27 17° 90° (E) 09:53:23 437.345
UNISAT 6 29 Sep 09:48:15 09:51:16 19° 62° (ENE) 09:54:19 437.425
AAUSAT CUBESAT 2 29 Sep 09:52:28 09:56:29 41° 98° (E) 10:00:27 437.432
DANDE 29 Sep 09:53:17 09:57:58 16° 285° (WNW) 10:02:32 436.750
STRAND 1 29 Sep 09:53:43 09:54:51 11° 275° (W) 09:56:01 437.568
HO-68 29 Sep 09:56:51 10:04:03 84° 107° (ESE) 10:11:13 435.675
JAS-2 29 Sep 09:59:48 10:02:03 12° 39° (NE) 10:04:20 435.910
NOAA 15 29 Sep 10:05:16 10:07:45 13° 308° (NW) 10:10:14 137.62
PCSat 29 Sep 10:13:55 10:15:07 11° 5° (N) 10:16:19 145.827
BEESAT 3 29 Sep 10:18:03 10:21:59 59° 236° (SW) 10:25:54 437.485
ANTELSAT 29 Sep 10:22:26 10:26:23 38° 69° (ENE) 10:30:22 437.575/2403.000
DOVE 4 29 Sep 10:25:46 10:26:24 10° 305° (NW) 10:27:01 437.250
CUTE-I 29 Sep 10:27:38 10:29:06 11° 310° (NW) 10:30:35 437.470
Cubesat XI-IV 29 Sep 10:27:58 10:29:29 11° 310° (NW) 10:31:00 437.490
PRISM 29 Sep 10:28:13 10:31:47 27° 265° (W) 10:35:22 437.425
AIST 2 29 Sep 10:38:11 10:40:29 14° 25° (NNE) 10:42:47 435.215
COMPASS 1 29 Sep 10:38:23 10:42:31 53° 288° (WNW) 10:46:37 437.405
O/OREOS (USA 219) 29 Sep 10:39:46 10:40:42 10° 323° (NW) 10:41:37 437.305
FUNcube-1 29 Sep 10:39:46 10:44:01 51° 100° (E) 10:48:19 145.935
TIGRISAT 29 Sep 10:42:15 10:46:25 57° 72° (ENE) 10:50:36 435.000
CUBEBUG 2 29 Sep 10:42:28 10:46:42 63° 287° (WNW) 10:51:03 437.445
QB50P1 29 Sep 10:44:08 10:45:30 11° 56° (ENE) 10:46:51 145.935-145.965
GONETS M04 29 Sep 10:48:12 10:56:44 51° 289° (WNW) 11:05:21
POPSAT HIP 1 29 Sep 10:56:42 10:59:03 15° 59° (ENE) 11:01:23 437.405
UWE-3 29 Sep 10:57:08 11:01:24 66° 287° (WNW) 11:05:47 435.000/436.395/437.385
DELFI C3 29 Sep 10:58:52 11:02:34 34° 97° (E) 11:06:14 145.870
SEEDS 29 Sep 11:10:46 11:13:55 20° 297° (WNW) 11:17:05 437.485
NANOSAT C BR1 29 Sep 11:11:06 11:14:04 19° 62° (ENE) 11:17:01 145.865
CUTE 1.7 + AOD 2 29 Sep 11:12:53 11:15:24 15° 300° (WNW) 11:17:55 437.475
CANX-2 29 Sep 11:14:49 11:16:55 13° 302° (WNW) 11:19:00 2200.000
BEESAT 2 29 Sep 11:17:15 11:20:49 31° 242° (WSW) 11:24:21 435.950
Oscar 11 29 Sep 11:17:43 11:22:04 65° 287° (WNW) 11:26:22 145.826/435.025
ZACube-1 29 Sep 11:22:50 11:27:04 56° 288° (WNW) 11:31:23 437.345
UNISAT 6 29 Sep 11:23:31 11:27:40 51° 260° (W) 11:31:51 437.425
Cosmos 2499 29 Sep 11:25:48 11:31:53 30° 295° (WNW) 11:38:02 435.465 / 435.565
AAUSAT CUBESAT 2 29 Sep 11:28:26 11:31:44 23° 296° (WNW) 11:35:01 437.432
HUMSAT D 29 Sep 11:28:46 11:32:45 38° 97° (E) 11:36:46 437.325/437.525
QB50P2 29 Sep 11:35:06 11:38:55 35° 68° (ENE) 11:42:46 145.880/145.840
POLYITAN 1 29 Sep 11:37:19 11:41:07 35° 68° (ENE) 11:44:56 437.675
JAS-2 29 Sep 11:38:44 11:45:01 42° 61° (ENE) 11:51:58 435.910
PHONESAT 2.4 29 Sep 11:41:17 11:42:23 12° 163° (SSE) 11:43:31 2401.200-2431.200
HO-68 29 Sep 11:45:28 11:51:02 25° 308° (NW) 11:56:36 435.675
PCSat 29 Sep 11:56:48 12:00:47 20° 31° (NNE) 12:04:45 145.827
ANTELSAT 29 Sep 11:59:50 12:03:16 23° 267° (W) 12:06:41 437.575/2403.000
Oscar 19 29 Sep 12:06:54 12:07:46 10° 50° (NE) 12:08:39 437.125/150
